Flag Weather past 2 weeks in Kuwait City, Kuwait

Now
59 °F

Clear.


Feels Like: 59 °F
Forecast: 62 / 71 °F
Wind: No wind

Location: Kuwait International Airport

Current Time: Nov 28, 2014 at 2:06:54 AM

Latest Report: Nov 28, 2014 at 1:00 AM


Visibility: 10 mi

Pressure: 30.04 "Hg

Humidity: 68%

Dew point: 48 °F

Location of Kuwait CityLocation

Historic Weather in Kuwait City — Graph

°F

Kuwait City temperature yesterday

Maximum temperature yesterday: 75 °F (at 1:00 PM)
Minimum temperature yesterday: 48 °F (at 4:00 AM)
Average temperature yesterday: 61 °F

Past Weeks' High & Low Weather Summary

 TemperatureHumidityPressure
High88 °F (Nov 22, 3:00 PM)94% (Nov 22, 1:30 AM)30.18 "Hg (Nov 22, 1:30 AM)
Low45 °F (Nov 13, 4:00 AM)22% (Nov 13, 2:00 PM)29.80 "Hg (Nov 25, 12:00 AM)
Average68 °F61%30.02 "Hg
* Reported Nov 13 1:00 AM — Nov 28 1:00 AM, Kuwait City, Weather by CustomWeather, © 2014

Note: Actual official high and low records may vary slightly from our data, if they occured in-between our weather recording intervals... More about our weather records

Advertising

Kuwait City weather history for previous 24 hours

 ConditionsComfort  
Time TempWeatherWind HumidityBarometerVisibility
1:00 AM
Nov 28
59 °FClear.No wind68%30.04 "Hg10 mi
12:00 AM61 °FClear.No wind68%30.07 "Hg10 mi
11:00 PM
Nov 27
59 °FClear.No wind68%30.07 "Hg10 mi
10:00 PM63 °FClear.No wind59%30.07 "Hg10 mi
9:00 PM63 °FClear.No wind64%30.07 "Hg10 mi
8:00 PM64 °FClear.3 mph64%30.07 "Hg10 mi
7:00 PM64 °FClear.3 mph64%30.04 "Hg10 mi
6:00 PM66 °FClear.5 mph60%30.04 "Hg10 mi
5:00 PM68 °FClear.6 mph49%30.04 "Hg10 mi
4:00 PM70 °FSunny.6 mph53%30.01 "Hg10 mi
3:00 PM72 °FSunny.5 mph57%30.01 "Hg10 mi
2:00 PM72 °FSunny.8 mph53%30.01 "Hg10 mi
1:00 PM75 °FSunny.3 mph47%30.01 "Hg10 mi
12:00 PM73 °FSunny.No wind38%30.04 "Hg10 mi
11:00 AM72 °FSunny.3 mph50%30.07 "Hg4 mi
10:00 AM68 °FSunny.No wind60%30.09 "Hg4 mi
9:00 AM63 °FSunny.3 mph68%30.09 "Hg2 mi
8:00 AM55 °FFog.No wind82%30.09 "Hg1 mi
7:00 AM48 °FFog.5 mph94%30.07 "Hg1 mi
6:00 AM50 °FFog.No wind94%30.07 "Hg1 mi
5:00 AM52 °FFog.5 mph94%30.04 "Hg1 mi
4:00 AM48 °FFog.No wind94%30.04 "Hg1 mi
3:00 AM50 °FFog.3 mph94%30.04 "Hg1 mi
2:00 AM52 °FFog.5 mph88%30.07 "Hg2 mi
Weather by CustomWeather, © 2014

See weather overviewHow to use our weather pages